Flag for France Weather past 2 weeks in Orléans, France

Now
55 °F

Clear.


Feels Like: 55 °F
Forecast: 58 / 80 °F
Wind: 3 mph from North

Location: Orleans Airport

Current Time: Jul 31, 2014 at 7:29:04 AM

Latest Report: Jul 31, 2014 at 7:00 AM


Visibility: N/A

Pressure: 30.01 "Hg

Humidity: 94%

Dew point: 54 °F

Location of OrléansLocation

Historic Weather in Orléans — Graph

°F

Orléans temperature yesterday

Maximum temperature yesterday: 79 °F (at 6:00 PM)
Minimum temperature yesterday: 57 °F (at 6:00 AM)
Average temperature yesterday: 68 °F

Past Weeks' High & Low Weather Summary

 TemperatureHumidityPressure
High91 °F (Jul 18, 5:00 PM)100% (Jul 16, 6:30 AM)30.18 "Hg (Jul 16, 6:30 AM)
Low54 °F (Jul 29, 6:30 AM)37% (Jul 24, 3:00 PM)29.74 "Hg (Jul 19, 5:30 AM)
Average70 °F72%29.97 "Hg
* Reported Jul 16 6:00 AM — Jul 31 6:30 AM, Orléans, Weather by CustomWeather, © 2014

Note: Actual official high and low records may vary slightly from our data, if they occured in-between our weather recording intervals... More about our weather records

Advertising

Orléans weather history for previous 24 hours

 ConditionsComfort  
Time TempWeatherWind HumidityBarometerVisibility
6:30 AM
Jul 31
55 °FClear.2 mph94%30.01 "HgN/A
6:00 AM57 °FClear.5 mph88%30.01 "HgN/A
5:30 AM57 °FClear.3 mph88%30.01 "HgN/A
5:00 AM57 °FClear.3 mph88%30.01 "HgN/A
4:30 AM59 °FPassing clouds.6 mph88%30.01 "HgN/A
4:00 AM59 °FPassing clouds.6 mph88%30.01 "HgN/A
3:30 AM59 °FClear.7 mph88%30.01 "HgN/A
3:00 AM61 °FClear.7 mph83%30.01 "HgN/A
2:30 AM61 °FClear.7 mph83%30.04 "HgN/A
2:00 AM63 °FClear.7 mph77%30.01 "HgN/A
1:30 AM63 °FClear.8 mph77%30.04 "HgN/A
1:00 AM63 °FClear.7 mph77%30.04 "HgN/A
12:30 AM64 °FClear.7 mph78%30.04 "HgN/A
12:00 AM66 °FClear.5 mph73%30.04 "HgN/A
11:30 PM
Jul 30
66 °FClear.6 mph73%30.01 "HgN/A
11:00 PM66 °FClear.5 mph78%30.01 "HgN/A
10:30 PM68 °FClear.6 mph73%30.01 "HgN/A
10:00 PM70 °FClear.7 mph69%30.01 "HgN/A
9:30 PM70 °FClear.7 mph69%30.01 "HgN/A
9:00 PM73 °FClear.5 mph61%29.98 "HgN/A
8:30 PM73 °FClear.3 mph61%29.98 "HgN/A
8:00 PM73 °FClear.5 mph65%29.98 "HgN/A
7:30 PM75 °FClear.7 mph57%29.98 "HgN/A
7:00 PM77 °FClear.5 mph51%29.98 "HgN/A
6:30 PM77 °FClear.5 mph51%29.98 "HgN/A
6:00 PM79 °FClear.7 mph51%29.98 "HgN/A
5:30 PM77 °FClear.7 mph51%29.98 "HgN/A
5:00 PM77 °FOvercast.6 mph54%29.98 "HgN/A
4:30 PM77 °FClear.7 mph54%29.98 "HgN/A
4:00 PM75 °FCloudy.6 mph57%29.98 "HgN/A
3:30 PM75 °FOvercast.8 mph54%29.98 "HgN/A
3:00 PM75 °FClear.9 mph54%29.98 "HgN/A
2:30 PM75 °FClear.9 mph54%29.98 "HgN/A
2:00 PM75 °FPartly sunny.6 mph54%29.98 "HgN/A
1:30 PM77 °FPartly sunny.5 mph54%29.98 "HgN/A
1:00 PM75 °FScattered clouds.3 mph57%29.98 "HgN/A
12:30 PM73 °FPassing clouds.3 mph61%29.98 "HgN/A
12:00 PM73 °FClear.3 mph61%30.01 "HgN/A
11:30 AM73 °FClear.2 mph61%29.98 "HgN/A
11:00 AM72 °FClear.3 mph69%29.98 "HgN/A
10:30 AM70 °FClear.6 mph73%30.01 "HgN/A
10:00 AM68 °FClear.5 mph78%29.98 "HgN/A
9:30 AM66 °FClear.6 mph78%29.98 "HgN/A
9:00 AM64 °FClear.7 mph83%29.98 "HgN/A
8:30 AM63 °FClear.5 mph88%29.98 "HgN/A
8:00 AM59 °FClear.3 mph94%29.98 "HgN/A
7:30 AM57 °FClear.3 mph94%29.98 "HgN/A
7:00 AM57 °FClear.2 mph94%29.98 "HgN/A
Weather by CustomWeather, © 2014

See weather overviewHow to use our weather pages